"Period start","avg(HW err(1)/warn(2) (#))","avg(Visibility (m))","avg(Weather code (#))","avg(Precip intensity (mm/h))","min(HW err(1)/warn(2) (#))","max(HW err(1)/warn(2) (#))","std(HW err(1)/warn(2) (#))","med(HW err(1)/warn(2) (#))","min(Visibility (m))","max(Visibility (m))","std(Visibility (m))","med(Visibility (m))","min(Weather code (#))","max(Weather code (#))","std(Weather code (#))","med(Weather code (#))","min(Precip intensity (mm/h))","max(Precip intensity (mm/h))","std(Precip intensity (mm/h))","med(Precip intensity (mm/h))"
2016-07-16 00:00:00,2,33572,0,0.00,2,2,0,2,22366,49045,9605,29110,0,0,0,0,0.00,0.00,0.00,0.00
2016-07-16 00:10:00,2,36991,0,0.00,2,2,0,2,20746,50000,10747,36517,0,0,0,0,0.00,0.00,0.00,0.00
2016-07-16 00:20:00,2,39228,0,0.00,2,2,0,2,31196,50000,5760,37764,0,0,0,0,0.00,0.00,0.00,0.00
2016-07-16 00:30:00,2,39149,0,0.00,2,2,0,2,27587,50000,9146,38392,0,0,0,0,0.00,0.00,0.00,0.00
2016-07-16 00:40:00,2,38032,0,0.00,2,2,0,2,21227,50000,9924,41718,0,0,0,0,0.00,0.00,0.00,0.00
2016-07-16 00:50:00,2,39193,0,0.00,2,2,0,2,19499,50000,12283,47326,0,0,0,0,0.00,0.00,0.00,0.00
2016-07-16 01:00:00,2,38315,0,0.00,2,2,0,2,22712,50000,8292,36740,0,0,0,0,0.00,0.00,0.00,0.00
2016-07-16 01:10:00,2,40283,0,0.00,2,2,0,2,31037,50000,6193,40126,0,0,0,0,0.00,0.00,0.00,0.00
2016-07-16 01:20:00,2,21050,36,0.47,2,2,0,2,12715,35085,7447,17488,0,61,29,56,0.00,2.10,0.76,0.00
2016-07-16 01:30:00,2,20072,12,0.07,2,2,0,2,11602,29332,5607,19610,0,41,19,0,0.00,0.55,0.17,0.00
2016-07-16 01:40:00,2,29606,59,0.38,2,2,0,2,20549,40476,7426,28459,41,61,6,61,0.15,1.05,0.31,0.23
2016-07-16 01:50:00,2,41855,15,0.01,2,2,0,2,18044,50000,8503,43764,0,51,23,0,0.00,0.15,0.05,0.00
2016-07-16 02:00:00,2,21129,43,1.23,2,2,0,2,9346,46318,11435,15958,0,61,28,61,0.00,4.20,1.55,0.57
2016-07-16 02:10:00,2,22110,30,0.49,2,2,0,2,9494,40366,9957,18458,0,61,30,30,0.00,2.70,0.90,0.00
2016-07-16 02:20:00,2,6924,61,1.26,2,2,0,2,4031,11134,3042,4938,61,61,0,61,0.45,2.10,0.56,1.25
2016-07-16 02:30:00,2,20120,47,0.14,2,2,0,2,6485,41084,11709,16949,0,61,16,51,0.00,0.40,0.12,0.15
2016-07-16 02:40:00,2,40478,0,0.00,2,2,0,2,33679,46350,4156,41916,0,0,0,0,0.00,0.00,0.00,0.00
2016-07-16 02:50:00,2,39758,0,0.00,2,2,0,2,25174,47625,6926,42594,0,0,0,0,0.00,0.00,0.00,0.00
2016-07-16 03:00:00,2,44810,0,0.00,2,2,0,2,36535,50000,4828,46796,0,0,0,0,0.00,0.00,0.00,0.00
2016-07-16 03:10:00,2,38798,0,0.00,2,2,0,2,26702,48065,8896,43683,0,0,0,0,0.00,0.00,0.00,0.00
2016-07-16 03:20:00,2,40640,0,0.00,2,2,0,2,30198,50000,6748,41542,0,0,0,0,0.00,0.00,0.00,0.00
2016-07-16 03:30:00,2,36398,0,0.00,2,2,0,2,28138,46922,5684,37002,0,0,0,0,0.00,0.00,0.00,0.00
2016-07-16 03:40:00,2,46199,0,0.00,2,2,0,2,38855,50000,3837,47330,0,0,0,0,0.00,0.00,0.00,0.00
2016-07-16 03:50:00,2,47869,0,0.00,2,2,0,2,34003,50000,4759,50000,0,0,0,0,0.00,0.00,0.00,0.00
2016-07-16 04:00:00,2,44125,0,0.00,2,2,0,2,35728,50000,5779,45252,0,0,0,0,0.00,0.00,0.00,0.00
2016-07-16 04:10:00,2,43292,0,0.00,2,2,0,2,30269,50000,7476,46658,0,0,0,0,0.00,0.00,0.00,0.00
2016-07-16 04:20:00,2,45064,0,0.00,2,2,0,2,25831,50000,7173,48640,0,0,0,0,0.00,0.00,0.00,0.00
2016-07-16 04:30:00,2,42425,0,0.00,2,2,0,2,35503,49402,4844,43475,0,0,0,0,0.00,0.00,0.00,0.00
2016-07-16 04:40:00,2,48105,0,0.00,2,2,0,2,40057,50000,3236,50000,0,0,0,0,0.00,0.00,0.00,0.00
2016-07-16 04:50:00,2,46307,0,0.00,2,2,0,2,38653,50000,4018,47600,0,0,0,0,0.00,0.00,0.00,0.00
2016-07-16 05:00:00,2,47587,0,0.00,2,2,0,2,42067,50000,2841,48786,0,0,0,0,0.00,0.00,0.00,0.00
2016-07-16 05:10:00,2,48312,0,0.00,2,2,0,2,42952,50000,2656,50000,0,0,0,0,0.00,0.00,0.00,0.00
2016-07-16 05:20:00,2,48376,0,0.00,2,2,0,2,41850,50000,2723,50000,0,0,0,0,0.00,0.00,0.00,0.00
2016-07-16 05:30:00,2,48501,0,0.00,2,2,0,2,42761,50000,2114,49178,0,0,0,0,0.00,0.00,0.00,0.00
2016-07-16 05:40:00,2,48908,0,0.00,2,2,0,2,46512,50000,1271,49318,0,0,0,0,0.00,0.00,0.00,0.00
2016-07-16 05:50:00,2,48818,0,0.00,2,2,0,2,44316,50000,1800,49827,0,0,0,0,0.00,0.00,0.00,0.00
2016-07-16 06:00:00,2,43482,0,0.00,2,2,0,2,29900,50000,5203,44692,0,0,0,0,0.00,0.00,0.00,0.00
2016-07-16 06:10:00,2,47428,0,0.00,2,2,0,2,41499,50000,3093,49076,0,0,0,0,0.00,0.00,0.00,0.00
2016-07-16 06:20:00,2,48856,0,0.00,2,2,0,2,45467,50000,1623,50000,0,0,0,0,0.00,0.00,0.00,0.00
2016-07-16 06:30:00,2,49058,0,0.00,2,2,0,2,46378,50000,1221,50000,0,0,0,0,0.00,0.00,0.00,0.00
2016-07-16 06:40:00,2,48484,0,0.00,2,2,0,2,42441,50000,2563,50000,0,0,0,0,0.00,0.00,0.00,0.00
2016-07-16 06:50:00,2,48934,0,0.00,2,2,0,2,44360,50000,1766,50000,0,0,0,0,0.00,0.00,0.00,0.00
2016-07-16 07:00:00,2,42863,0,0.00,2,2,0,2,28153,47212,5691,45727,0,0,0,0,0.00,0.00,0.00,0.00
2016-07-16 07:10:00,2,40381,0,0.00,2,2,0,2,12591,50000,11321,42484,0,0,0,0,0.00,0.00,0.00,0.00
2016-07-16 07:20:00,2,39725,0,0.00,2,2,0,2,15565,50000,10157,40105,0,0,0,0,0.00,0.00,0.00,0.00
2016-07-16 07:30:00,2,46232,0,0.00,2,2,0,2,36555,50000,4933,48744,0,0,0,0,0.00,0.00,0.00,0.00
2016-07-16 07:40:00,2,45888,0,0.00,2,2,0,2,39371,50000,4248,47469,0,0,0,0,0.00,0.00,0.00,0.00
2016-07-16 07:50:00,2,49507,0,0.00,2,2,0,2,46270,50000,1165,50000,0,0,0,0,0.00,0.00,0.00,0.00
2016-07-16 08:00:00,2,49880,0,0.00,2,2,0,2,48921,50000,339,50000,0,0,0,0,0.00,0.00,0.00,0.00
2016-07-16 08:10:00,2,49676,0,0.00,2,2,0,2,47707,50000,715,50000,0,0,0,0,0.00,0.00,0.00,0.00
2016-07-16 08:20:00,2,49865,0,0.00,2,2,0,2,48954,50000,317,50000,0,0,0,0,0.00,0.00,0.00,0.00
2016-07-16 08:30:00,2,48511,0,0.00,2,2,0,2,41843,50000,2617,50000,0,0,0,0,0.00,0.00,0.00,0.00
2016-07-16 08:40:00,2,50000,0,0.00,2,2,0,2,50000,50000,0,50000,0,0,0,0,0.00,0.00,0.00,0.00
2016-07-16 08:50:00,2,49913,0,0.00,2,2,0,2,49133,50000,260,50000,0,0,0,0,0.00,0.00,0.00,0.00
2016-07-16 09:00:00,2,49560,0,0.00,2,2,0,2,48089,50000,647,50000,0,0,0,0,0.00,0.00,0.00,0.00
2016-07-16 09:10:00,2,49177,0,0.00,2,2,0,2,45961,50000,1370,49905,0,0,0,0,0.00,0.00,0.00,0.00
2016-07-16 09:20:00,2,48557,0,0.00,2,2,0,2,44044,50000,1947,49545,0,0,0,0,0.00,0.00,0.00,0.00
2016-07-16 09:30:00,2,49920,0,0.00,2,2,0,2,49202,50000,239,50000,0,0,0,0,0.00,0.00,0.00,0.00
2016-07-16 09:40:00,2,49370,0,0.00,2,2,0,2,44626,50000,1605,50000,0,0,0,0,0.00,0.00,0.00,0.00
2016-07-16 09:50:00,2,49863,0,0.00,2,2,0,2,48629,50000,411,50000,0,0,0,0,0.00,0.00,0.00,0.00
2016-07-16 10:00:00,2,50000,0,0.00,2,2,0,2,50000,50000,0,50000,0,0,0,0,0.00,0.00,0.00,0.00
2016-07-16 10:10:00,2,50000,0,0.00,2,2,0,2,50000,50000,0,50000,0,0,0,0,0.00,0.00,0.00,0.00
2016-07-16 10:20:00,2,49674,0,0.00,2,2,0,2,48291,50000,652,50000,0,0,0,0,0.00,0.00,0.00,0.00
2016-07-16 10:30:00,2,50000,0,0.00,2,2,0,2,50000,50000,0,50000,0,0,0,0,0.00,0.00,0.00,0.00
2016-07-16 10:40:00,2,50000,0,0.00,2,2,0,2,50000,50000,0,50000,0,0,0,0,0.00,0.00,0.00,0.00
2016-07-16 10:50:00,2,49504,0,0.00,2,2,0,2,45884,50000,1226,50000,0,0,0,0,0.00,0.00,0.00,0.00
2016-07-16 11:00:00,2,50000,0,0.00,2,2,0,2,50000,50000,0,50000,0,0,0,0,0.00,0.00,0.00,0.00
2016-07-16 11:10:00,2,50000,0,0.00,2,2,0,2,50000,50000,0,50000,0,0,0,0,0.00,0.00,0.00,0.00
2016-07-16 11:20:00,2,50000,0,0.00,2,2,0,2,50000,50000,0,50000,0,0,0,0,0.00,0.00,0.00,0.00
2016-07-16 11:30:00,2,49980,0,0.00,2,2,0,2,49799,50000,60,50000,0,0,0,0,0.00,0.00,0.00,0.00
2016-07-16 11:40:00,2,50000,0,0.00,2,2,0,2,50000,50000,0,50000,0,0,0,0,0.00,0.00,0.00,0.00
2016-07-16 11:50:00,2,50000,0,0.00,2,2,0,2,50000,50000,0,50000,0,0,0,0,0.00,0.00,0.00,0.00
2016-07-16 12:00:00,2,50000,0,0.00,2,2,0,2,50000,50000,0,50000,0,0,0,0,0.00,0.00,0.00,0.00
2016-07-16 12:10:00,2,50000,0,0.00,2,2,0,2,50000,50000,0,50000,0,0,0,0,0.00,0.00,0.00,0.00
2016-07-16 12:20:00,2,50000,0,0.00,2,2,0,2,50000,50000,0,50000,0,0,0,0,0.00,0.00,0.00,0.00
2016-07-16 12:30:00,2,49856,0,0.00,2,2,0,2,48559,50000,432,50000,0,0,0,0,0.00,0.00,0.00,0.00
2016-07-16 12:40:00,2,49998,0,0.00,2,2,0,2,49975,50000,8,50000,0,0,0,0,0.00,0.00,0.00,0.00
2016-07-16 12:50:00,2,50000,0,0.00,2,2,0,2,50000,50000,0,50000,0,0,0,0,0.00,0.00,0.00,0.00
2016-07-16 13:00:00,2,50000,0,0.00,2,2,0,2,50000,50000,0,50000,0,0,0,0,0.00,0.00,0.00,0.00
2016-07-16 13:10:00,2,50000,0,0.00,2,2,0,2,50000,50000,0,50000,0,0,0,0,0.00,0.00,0.00,0.00
2016-07-16 13:20:00,2,50000,0,0.00,2,2,0,2,50000,50000,0,50000,0,0,0,0,0.00,0.00,0.00,0.00
2016-07-16 13:30:00,2,50000,0,0.00,2,2,0,2,50000,50000,0,50000,0,0,0,0,0.00,0.00,0.00,0.00
2016-07-16 13:40:00,2,50000,0,0.00,2,2,0,2,50000,50000,0,50000,0,0,0,0,0.00,0.00,0.00,0.00
2016-07-16 13:50:00,2,50000,0,0.00,2,2,0,2,50000,50000,0,50000,0,0,0,0,0.00,0.00,0.00,0.00
2016-07-16 14:00:00,2,50000,0,0.00,2,2,0,2,50000,50000,0,50000,0,0,0,0,0.00,0.00,0.00,0.00
2016-07-16 14:10:00,2,50000,0,0.00,2,2,0,2,50000,50000,0,50000,0,0,0,0,0.00,0.00,0.00,0.00
2016-07-16 14:20:00,2,50000,0,0.00,2,2,0,2,50000,50000,0,50000,0,0,0,0,0.00,0.00,0.00,0.00
2016-07-16 14:30:00,2,50000,0,0.00,2,2,0,2,50000,50000,0,50000,0,0,0,0,0.00,0.00,0.00,0.00
2016-07-16 14:40:00,2,50000,0,0.00,2,2,0,2,50000,50000,0,50000,0,0,0,0,0.00,0.00,0.00,0.00
2016-07-16 14:50:00,2,50000,0,0.00,2,2,0,2,50000,50000,0,50000,0,0,0,0,0.00,0.00,0.00,0.00
2016-07-16 15:00:00,2,50000,0,0.00,2,2,0,2,50000,50000,0,50000,0,0,0,0,0.00,0.00,0.00,0.00
2016-07-16 15:10:00,2,50000,0,0.00,2,2,0,2,50000,50000,0,50000,0,0,0,0,0.00,0.00,0.00,0.00
2016-07-16 15:20:00,2,50000,0,0.00,2,2,0,2,50000,50000,0,50000,0,0,0,0,0.00,0.00,0.00,0.00
2016-07-16 15:30:00,2,43118,0,0.00,2,2,0,2,33734,50000,5405,42502,0,0,0,0,0.00,0.00,0.00,0.00
2016-07-16 15:40:00,2,45961,0,0.00,2,2,0,2,37573,50000,4637,47518,0,0,0,0,0.00,0.00,0.00,0.00
2016-07-16 15:50:00,2,42985,0,0.00,2,2,0,2,34936,50000,5761,43414,0,0,0,0,0.00,0.00,0.00,0.00
2016-07-16 16:00:00,2,27247,0,0.00,2,2,0,2,10385,47386,12199,24084,0,0,0,0,0.00,0.00,0.00,0.00
2016-07-16 16:10:00,2,47632,0,0.00,2,2,0,2,38676,50000,3651,50000,0,0,0,0,0.00,0.00,0.00,0.00
2016-07-16 16:20:00,2,45711,0,0.00,2,2,0,2,38101,50000,3541,45175,0,0,0,0,0.00,0.00,0.00,0.00
2016-07-16 16:30:00,2,49836,0,0.00,2,2,0,2,48488,50000,451,50000,0,0,0,0,0.00,0.00,0.00,0.00
2016-07-16 16:40:00,2,48646,0,0.00,2,2,0,2,45394,50000,1792,50000,0,0,0,0,0.00,0.00,0.00,0.00
2016-07-16 16:50:00,2,40467,0,0.00,2,2,0,2,24275,50000,8189,40506,0,0,0,0,0.00,0.00,0.00,0.00
2016-07-16 17:00:00,2,48382,0,0.00,2,2,0,2,40723,50000,3104,50000,0,0,0,0,0.00,0.00,0.00,0.00
2016-07-16 17:10:00,2,42108,0,0.00,2,2,0,2,21016,50000,10601,47611,0,0,0,0,0.00,0.00,0.00,0.00
2016-07-16 17:20:00,2,36687,0,0.00,2,2,0,2,12898,50000,13446,42224,0,0,0,0,0.00,0.00,0.00,0.00
2016-07-16 17:30:00,2,11812,0,0.00,2,2,0,2,8260,15446,2118,11574,0,0,0,0,0.00,0.00,0.00,0.00
2016-07-16 17:40:00,2,7191,3,0.00,2,2,0,2,1511,14904,4277,6901,0,10,5,0,0.00,0.00,0.00,0.00
2016-07-16 17:50:00,2,4339,10,0.00,2,2,0,2,1701,6580,1537,4381,10,10,0,10,0.00,0.00,0.00,0.00
2016-07-16 18:00:00,2,6687,10,0.00,2,2,0,2,677,17282,4384,6683,10,10,0,10,0.00,0.00,0.00,0.00
2016-07-16 18:10:00,2,1898,10,0.00,2,2,0,2,814,4125,1018,1562,10,10,0,10,0.00,0.00,0.00,0.00
2016-07-16 18:20:00,2,3093,10,0.00,2,2,0,2,1161,6029,1404,3324,10,10,0,10,0.00,0.00,0.00,0.00
2016-07-16 18:30:00,2,4059,10,0.00,2,2,0,2,816,13033,3949,2194,10,10,0,10,0.00,0.00,0.00,0.00
2016-07-16 18:40:00,2,5849,10,0.00,2,2,0,2,2407,15068,4090,3472,10,10,0,10,0.00,0.00,0.00,0.00
2016-07-16 18:50:00,2,13628,10,0.00,2,2,0,2,2286,47069,14151,7103,10,10,0,10,0.00,0.00,0.00,0.00
2016-07-16 19:00:00,2,44792,4,0.00,2,2,0,2,32821,50000,5910,47558,0,10,5,0,0.00,0.00,0.00,0.00
2016-07-16 19:10:00,2,32034,0,0.00,2,2,0,2,11431,50000,12341,28446,0,0,0,0,0.00,0.00,0.00,0.00
2016-07-16 19:20:00,2,19832,0,0.00,2,2,0,2,10431,34552,7957,18484,0,0,0,0,0.00,0.00,0.00,0.00
2016-07-16 19:30:00,2,23683,2,0.00,2,2,0,2,2845,50000,19893,16970,0,10,4,0,0.00,0.00,0.00,0.00
2016-07-16 19:40:00,2,28229,6,0.00,2,2,0,2,9561,44775,11293,29038,0,10,5,10,0.00,0.00,0.00,0.00
2016-07-16 19:50:00,2,6881,4,0.00,2,2,0,2,1133,16722,5237,5742,0,10,5,0,0.00,0.00,0.00,0.00
2016-07-16 20:00:00,2,1379,10,0.00,2,2,0,2,1130,1605,146,1380,10,10,0,10,0.00,0.00,0.00,0.00
2016-07-16 20:10:00,2,1590,10,0.00,2,2,0,2,1317,1983,196,1564,10,10,0,10,0.00,0.00,0.00,0.00
2016-07-16 20:20:00,2,25531,7,0.00,2,2,0,2,1109,50000,21414,25370,0,10,5,10,0.00,0.00,0.00,0.00
2016-07-16 20:30:00,2,49913,0,0.00,2,2,0,2,49203,50000,238,50000,0,0,0,0,0.00,0.00,0.00,0.00
2016-07-16 20:40:00,2,45406,0,0.00,2,2,0,2,35352,50000,4669,46515,0,0,0,0,0.00,0.00,0.00,0.00
2016-07-16 20:50:00,2,49115,0,0.00,2,2,0,2,41807,50000,2444,50000,0,0,0,0,0.00,0.00,0.00,0.00
2016-07-16 21:00:00,2,49262,0,0.00,2,2,0,2,45022,50000,1584,50000,0,0,0,0,0.00,0.00,0.00,0.00
2016-07-16 21:10:00,2,48981,0,0.00,2,2,0,2,45619,50000,1536,49978,0,0,0,0,0.00,0.00,0.00,0.00
2016-07-16 21:20:00,2,45355,0,0.00,2,2,0,2,33955,50000,5415,48487,0,0,0,0,0.00,0.00,0.00,0.00
2016-07-16 21:30:00,2,49528,0,0.00,2,2,0,2,47659,50000,733,49858,0,0,0,0,0.00,0.00,0.00,0.00
2016-07-16 21:40:00,2,48214,0,0.00,2,2,0,2,42968,50000,2565,50000,0,0,0,0,0.00,0.00,0.00,0.00
2016-07-16 21:50:00,2,49873,0,0.00,2,2,0,2,48729,50000,381,50000,0,0,0,0,0.00,0.00,0.00,0.00
2016-07-16 22:00:00,2,47460,0,0.00,2,2,0,2,35693,50000,4925,50000,0,0,0,0,0.00,0.00,0.00,0.00
2016-07-16 22:10:00,2,49323,0,0.00,2,2,0,2,48151,50000,770,49791,0,0,0,0,0.00,0.00,0.00,0.00
2016-07-16 22:20:00,2,49368,0,0.00,2,2,0,2,46228,50000,1190,50000,0,0,0,0,0.00,0.00,0.00,0.00
2016-07-16 22:30:00,2,40275,0,0.00,2,2,0,2,27298,49539,7178,42291,0,0,0,0,0.00,0.00,0.00,0.00
2016-07-16 22:40:00,2,46278,0,0.00,2,2,0,2,35002,50000,4920,48658,0,0,0,0,0.00,0.00,0.00,0.00
2016-07-16 22:50:00,2,41156,0,0.00,2,2,0,2,28524,50000,6114,41333,0,0,0,0,0.00,0.00,0.00,0.00
2016-07-16 23:00:00,2,12888,2,0.00,2,2,0,2,3126,34285,9487,9712,0,4,2,4,0.00,0.00,0.00,0.00
2016-07-16 23:10:00,2,28934,2,0.00,2,2,0,2,11780,47531,11203,27243,0,4,2,2,0.00,0.00,0.00,0.00
2016-07-16 23:20:00,2,17079,0,0.00,2,2,0,2,7084,33536,7951,14716,0,0,0,0,0.00,0.00,0.00,0.00
2016-07-16 23:30:00,2,3841,3,0.00,2,2,0,2,1641,8465,1947,3143,0,4,2,4,0.00,0.00,0.00,0.00
2016-07-16 23:40:00,2,18461,4,0.00,2,2,0,2,4257,48538,14032,11768,4,4,0,4,0.00,0.00,0.00,0.00
2016-07-16 23:50:00,2,3188,4,0.00,2,2,0,2,1278,9387,2454,2076,4,4,0,4,0.00,0.00,0.00,0.00
